EHI
0 0 0 0 0 0 0 0 0 0 0 0 0 0 0 0 0 0 0 0 0 0 0 0 0 0 0 0 0 0 0 0 0 0 0 0 0 0 0 0 0 0 0
0 0 0 0 0 0 0 0 0 0 0 0 0 0 0 0 0 0 0 0 0 0 0 0 0 0 0 0 0 0 0 0 0 0 0 0 0 0 0 0 0 0 0
0 0 0 0 0 0 0 0 0 0 0 0 0 0 0 0 0 0 0 0 0 0 0 0 0 0 0 0 0 0 0 0 0 0 0 0 0 0 0 0 0 0 0
0 0 0 0 0 0 0 0 0 0 0 0 0 0 0 0 0 0 0 0 0 0 0 0 0 0 0 0 0 0 0 0 0 0 0 0 0 0 0 0 0 0 0
0 0 0 0 0 0 0 0 0 0 0 0 0 0 0 0 0 0 0 0 0 0 0 0 0 0 0 0 0 0 0 0 0 0 0 0 0 0 0 0 0 0 0
0 0 0 0 0 0 0 0 0 0 0 0 0 0 0 0 0 0 0 0 0 0 0 0 0 0 0 0 0 0 0 0 0 0 0 0 0 0 0 0 0 0 0
0 0 0 0 0 0 0 0 0 0 0 0 0 0 0 0 0 0 0 0 0 0 0 0 0 0 0 0 0 0 0 0 0 0 0 0 0 0 0 0 0 0 0
0 0 0 0 0 0 0 0 0 0 0 0 0 0 0 0 0 0 0 0 0 0 0 0 0 0 0 0 0 0 0 0 0 0 0 0 0 0 0 0 0 0 0
0 0 0 0 0 0 0 0 0 0 0 0 0 0 0 0 0 0 0 0 0 0 0 0 0 0 0 0 0 0 0 0 0 0 0 0 0 0 0 0 0 0 0
1 0 0 0 0 0 0 0 0 0 0 0 0 0 0 0 0 0 0 0 0 0 0 0 0 0 0 0 0 0 0 0 0 0 0 0 0 0 0 0 0 0 0
2 1 0 0 0 0 0 0 0 0 0 0 0 0 0 0 0 0 0 0 0 0 0 0 0 0 0 0 0 0 0 0 0 0 0 0 0 0 0 0 0 0 0
4 2 1 0 0 0 0 0 0 0 0 0 0 0 0 0 0 0 0 0 0 0 0 0 0 0 0 0 0 0 0 0 0 0 0 0 0 0 0 0 0 0 0
4 3 1 0 0 0 0 0 0 0 0 0 0 0 0 0 0 0 0 0 0 0 0 0 0 0 0 0 0 0 0 0 0 0 0 0 0 0 0 0 0 0 0
4 3 2 1 0 0 0 0 0 0 0 0 0 0 0 0 0 0 0 0 0 0 0 0 0 0 0 0 0 0 0 0 0 0 0 0 0 0 0 0 0 0 0
2 2 2 1 0 0 0 0 0 0 0 0 0 0 0 0 0 0 0 0 0 0 0 0 0 0 0 0 0 0 0 0 0 0 0 0 0 0 0 0 0 0 0
0 1 1 0 0 0 0 0 0 0 0 0 0 0 0 0 0 0 0 0 0 0 0 0 0 0 0 0 0 0 0 0 0 0 0 0 0 0 0 0 0 0 0
0 0 0 0 0 0 0 0 0 0 0 0 0 0 0 0 0 0 0 0 0 0 0 0 0 0 0 0 0 0 0 0 0 0 0 0 0 0 0 0 0 0 0
0 0 0 0 0 0 0 0 0 0 0 0 0 0 0 0 0 0 0 0 0 0 0 0 0 0 0 0 0 0 0 0 0 0 0 0 0 0 0 0 0 0 0
0 0 0 0 0 0 0 0 0 0 0 0 0 0 0 0 0 0 0 0 0 0 0 0 0 0 0 0 0 0 0 0 0 0 0 0 0 0 0 0 0 0 0
0 0 0 0 0 0 0 0 0 0 0 0 0 0 0 0 0 0 0 0 0 0 0 0 0 0 0 0 0 0 0 0 0 0 0 0 0 0 0 0 0 0 0
0 0 0 0 0 0 0 0 0 0 0 0 0 0 0 0 0 0 0 0 0 0 0 0 0 0 0 0 0 0 0 0 0 0 0 0 0 0 0 0 0 0 0
0 0 0 0 0 0 0 0 0 0 0 0 0 0 0 0 0 0 0 0 0 0 0 0 0 0 0 0 0 0 0 0 0 0 0 0 0 0 0 0 0 0 0
0 0 0 0 0 0 0 0 0 0 0 0 0 0 0 0 0 0 0 0 0 0 0 0 0 0 0 0 0 0 0 0 0 0 0 0 0 0 0 0 0 0 0
0 0 0 0 0 0 0 0 0 0 0 0 0 0 0 0 0 0 0 0 0 0 0 0 0 0 0 0 0 0 0 0 0 0 0 0 0 0 0 0 0 0 0
0 0 0 0 0 0 0 0 0 0 0 0 0 0 0 0 0 0 0 0 0 0 0 0 0 0 0 0 0 0 0 0 0 0 0 0 0 0 0 0 0 0 0
0 0 0 0 0 0 0 0 0 0 0 0 0 0 0 0 0 0 0 0 0 0 0 0 0 0 0 0 0 0 0 0 0 0 0 0 0 0 0 0 0 0 0
Wind_Speed
5 4 3 3 3 3 3 4 4 4 4 4 3 4 4 4 3 3 3 8 9 8 8 7 7 7 7 8 8 8 8 9 9 9 9 9 9 9 9 10 10 10 9
5 5 4 4 4 4 4 4 5 4 3 3 4 3 4 3 3 3 3 4 8 8 7 7 7 7 7 7 7 7 7 8 8 8 8 8 8 8 9 9 9 9 9
7 6 5 5 5 4 5 4 4 4 3 3 3 3 3 3 3 3 3 2 3 5 6 6 6 6 7 7 7 7 7 7 6 7 7 7 8 8 8 9 9 10 10
9 7 6 6 6 5 5 5 5 4 3 3 3 2 2 2 3 2 2 2 2 2 3 5 5 5 5 6 7 7 7 6 6 6 6 6 7 7 8 8 9 10 10
11 9 7 6 7 6 5 6 3 3 3 3 3 2 2 2 2 2 2 2 2 2 1 1 3 3 3 4 6 7 7 7 6 6 6 6 7 8 8 9 10 11 12
12 10 7 8 8 7 6 5 5 3 3 4 3 3 1 1 2 2 3 2 2 2 1 1 2 2 4 4 5 7 7 8 7 7 7 7 8 9 10 10 11 12 13
13 12 9 9 9 9 9 9 5 4 3 3 4 2 1 1 1 2 2 2 2 2 2 2 1 1 2 4 6 7 8 9 9 9 9 9 10 11 12 13 13 14 14
13 12 12 11 10 8 9 9 6 5 3 4 4 3 1 2 1 1 1 3 3 2 3 3 2 1 1 1 4 7 8 9 10 11 11 12 13 13 14 15 15 16 16
14 13 14 12 12 12 12 12 10 10 6 3 3 5 5 5 2 1 1 1 2 2 2 2 2 2 1 1 2 5 7 8 10 12 13 14 15 16 17 17 18 18 17
15 14 14 14 14 12 12 13 11 7 8 5 3 1 2 4 5 2 1 1 1 3 3 2 2 2 2 2 2 5 7 9 11 13 15 16 17 18 19 20 20 20 19
13 14 14 13 14 12 13 12 11 9 6 7 6 4 3 2 2 4 3 2 1 1 2 2 2 2 2 2 1 4 8 10 13 15 17 19 20 21 22 22 21 21 20
9 12 12 13 12 11 12 12 12 12 8 7 6 5 5 5 4 4 3 3 2 1 1 1 2 3 3 2 2 7 9 12 15 17 19 21 22 22 22 22 22 22 22
9 14 13 13 11 10 10 9 10 10 8 8 7 4 3 2 3 3 4 3 2 0 1 1 2 2 3 1 1 8 9 14 16 19 21 22 22 22 22 22 22 22 22
11 12 13 12 11 10 10 9 7 7 6 7 7 6 5 4 3 3 3 4 2 1 2 3 1 2 2 1 4 9 5 14 18 20 21 21 21 21 21 22 22 22 23
6 9 10 9 9 9 9 9 7 8 8 7 8 8 5 4 4 4 3 3 4 2 2 2 2 2 3 2 6 3 3 12 19 20 21 21 21 21 21 22 22 23 23
5 8 8 9 9 10 10 9 9 9 10 8 7 9 7 5 5 4 3 3 2 3 3 3 3 2 3 4 9 4 4 17 18 20 21 21 21 22 22 22 23 23 23
7 9 9 10 10 11 11 11 10 12 12 10 9 9 8 6 4 3 3 2 1 2 4 3 2 2 3 5 6 5 5 6 8 18 22 22 22 22 22 22 23 23 23
8 10 11 11 11 11 11 12 13 12 12 11 10 9 8 6 5 3 2 2 2 3 4 6 3 3 5 5 6 6 7 7 6 17 22 22 22 22 22 22 22 23 23
10 10 11 12 12 12 12 12 13 12 11 10 9 8 7 6 4 3 3 3 3 4 4 5 5 3 4 5 5 6 7 7 9 13 18 19 20 21 21 22 23 23 24
11 11 12 12 13 13 13 13 13 12 11 10 8 7 6 4 3 3 3 4 4 4 4 5 5 4 5 5 4 5 7 5 7 9 13 15 18 20 22 24 25 25 25
13 13 14 13 13 11 11 13 12 11 10 9 7 5 4 2 3 4 4 4 4 4 4 4 5 4 4 4 5 5 9 7 7 8 8 6 8 8 11 18 22 24 25
13 13 13 13 12 10 18 18 13 9 8 7 6 4 2 1 1 3 6 7 6 5 4 4 4 5 6 6 6 7 8 9 7 3 5 8 7 10 9 8 19 25 26
12 12 12 12 12 15 19 18 16 9 8 6 5 3 2 1 2 2 5 8 9 12 12 7 6 6 7 7 8 9 9 10 10 6 8 13 7 11 9 12 24 26 27
10 10 11 11 10 13 17 16 14 8 6 5 3 3 1 1 3 5 4 4 5 6 8 6 6 8 9 9 10 10 10 9 7 7 6 10 9 10 10 9 21 27 28
9 9 9 9 9 9 12 12 10 5 4 4 2 1 1 2 8 11 4 3 5 5 10 15 16 15 19 20 16 7 5 7 10 7 4 6 6 7 8 10 14 22 22
9 9 9 8 7 5 7 9 9 3 3 2 1 1 4 6 10 10 4 3 5 6 7 7 9 11 10 12 16 7 4 6 7 7 4 4 4 5 8 5 6 7 11
Wind_Direction
175 172 168 160 152 142 143 136 129 124 116 108 109 117 116 106 99 84 78 104 109 112 107 98 87 77 69 62 57 51 45 39 35 31 28 27 25 22 18 15 12 7 3
178 175 173 171 167 160 153 147 142 134 122 117 113 118 123 118 109 103 84 100 114 116 113 103 90 76 65 57 52 45 39 33 29 24 20 19 18 15 11 8 4 359 354
182 181 182 183 176 158 144 131 124 117 117 114 115 122 127 133 129 117 103 84 96 113 120 114 100 83 65 51 42 35 29 23 18 14 11 10 7 4 2 359 354 349 342
187 184 188 189 170 155 150 146 140 124 127 132 131 130 134 143 147 140 120 111 94 82 102 120 109 89 63 43 31 22 15 9 3 357 355 354 351 348 346 344 341 336 331
192 189 191 185 167 162 160 159 147 139 148 149 139 120 131 158 170 165 165 157 139 119 78 94 98 82 49 23 10 3 357 351 342 334 332 332 330 328 328 328 327 324 320
193 190 187 179 170 167 167 162 147 125 134 144 121 97 81 169 176 186 192 180 182 174 141 81 67 30 22 5 354 344 337 331 324 315 312 311 311 310 312 313 314 314 312
192 190 185 178 178 180 178 166 143 137 133 142 114 92 32 40 188 201 192 187 197 187 163 153 128 83 3 358 347 329 323 318 313 307 301 300 299 301 303 303 305 305 304
191 191 187 184 183 177 173 173 155 144 146 169 144 134 193 299 267 191 196 196 194 169 166 158 140 119 51 3 326 329 322 314 308 304 299 296 296 296 296 298 299 299 299
195 194 192 185 185 183 185 185 177 162 159 185 188 154 160 208 209 256 236 195 184 172 164 149 136 109 83 56 341 327 329 322 310 305 301 299 298 297 296 296 297 296 297
197 196 191 189 187 189 188 188 184 172 151 161 182 178 143 147 154 184 261 245 197 184 178 157 130 116 99 78 23 352 348 333 319 313 309 306 303 300 298 298 297 297 296
199 198 193 191 190 192 191 185 181 181 170 162 160 154 142 96 132 150 189 210 222 207 197 177 161 146 120 94 18 351 353 337 325 317 310 305 301 299 298 298 298 297 297
198 198 194 194 194 192 189 187 183 183 181 164 160 159 158 160 175 163 158 169 195 230 258 216 185 168 152 119 14 358 349 334 323 314 307 302 300 299 298 298 298 296 294
201 200 195 195 194 191 186 178 177 179 173 163 159 149 131 126 136 137 130 138 148 318 317 262 190 178 167 149 313 344 344 327 318 310 304 301 300 301 299 296 294 293 291
208 198 196 193 189 181 175 166 163 160 148 141 133 126 118 108 101 112 127 131 124 340 302 269 219 198 189 217 301 339 331 319 312 305 302 301 301 299 296 293 291 290 290
194 185 183 177 168 161 157 152 149 141 131 124 122 117 107 99 88 82 91 116 140 182 258 265 257 220 217 234 299 306 279 304 306 305 303 300 296 295 293 291 289 288 287
163 157 157 151 146 143 142 137 133 130 122 119 119 112 104 95 86 84 90 85 104 162 234 245 244 245 256 283 297 306 289 304 308 304 299 297 296 294 291 288 287 286 286
137 141 140 137 135 135 135 131 130 128 122 118 114 110 108 105 102 97 97 104 132 170 241 265 252 262 269 277 288 286 278 274 279 296 298 296 294 292 290 289 288 287 285
127 131 131 129 129 129 129 128 126 122 120 117 113 112 113 113 114 120 130 166 197 207 233 266 263 259 258 268 271 278 287 286 278 293 295 295 295 294 292 290 288 287 285
116 118 120 120 120 119 117 115 114 111 109 111 113 114 117 121 131 146 171 198 217 227 222 248 265 249 258 264 274 275 276 278 282 288 294 294 293 293 292 292 292 292 289
104 104 104 106 108 109 109 109 108 108 107 105 105 108 113 123 148 177 205 219 224 233 235 246 260 259 256 258 262 278 289 273 279 285 284 285 287 291 293 293 292 290 288
94 98 99 99 100 101 105 108 107 108 109 106 101 99 105 139 209 220 225 221 219 230 242 250 262 268 268 271 273 274 290 289 276 267 271 269 274 275 280 284 287 285 283
91 95 98 100 98 101 110 108 107 103 102 101 98 96 111 153 348 332 309 291 267 248 240 239 256 266 275 270 273 279 286 294 292 256 267 280 273 278 277 269 280 284 284
90 91 93 96 99 106 107 104 102 99 98 101 110 116 107 71 34 300 299 301 298 295 290 283 278 275 277 274 275 278 274 275 279 277 286 288 276 278 277 278 284 285 286
86 87 88 90 93 99 101 101 102 100 105 111 116 122 125 302 300 290 259 259 259 269 281 280 257 261 264 266 260 271 282 286 277 269 263 279 282 277 278 273 282 284 285
84 82 82 83 87 95 105 111 112 112 104 100 103 117 273 278 299 308 303 274 273 273 291 294 293 293 296 301 302 299 293 294 293 285 252 261 276 282 275 269 272 279 282
81 81 75 71 77 80 109 116 119 105 101 102 98 317 317 313 309 315 306 279 282 277 275 286 295 297 295 293 298 290 273 278 285 288 247 248 274 302 294 258 250 266 277